Dewpoint
6 7 8 8 9 9 9 10 10 10 10 10 10 10 9 8 8 8 7 7 7 7 7 6 7 8 7 7 7 7 7 7 7 6 7 6 6 7 7 7 6 6 6
3 5 7 8 8 9 9 9 9 9 9 10 9 9 9 8 8 7 7 7 6 7 7 6 6 6 6 7 7 7 7 7 6 6 7 7 6 6 7 7 6 6 6
1 2 3 7 7 7 8 8 8 7 8 7 7 8 8 8 7 7 7 7 7 7 8 8 7 7 7 7 6 7 7 7 6 7 6 5 5 4 4 5 6 6 6
-1 1 2 5 6 7 7 7 8 7 8 8 6 6 6 7 7 7 6 7 7 7 5 4 4 4 5 5 4 6 7 7 7 7 7 5 2 1 1 3 4 5 6
-6 -2 -0 0 4 7 6 7 7 7 8 7 6 5 5 6 7 6 6 6 5 4 2 1 1 -0 -2 -2 -1 2 6 7 7 7 6 6 4 3 2 0 1 4 4
-8 -8 -7 -1 3 5 6 6 6 7 7 7 7 7 5 4 4 4 3 3 3 2 2 1 1 1 -1 -4 -4 -3 -1 1 2 4 4 5 5 4 4 3 2 1 -0
-11 -10 -9 -8 -4 2 3 5 6 6 6 6 6 6 6 6 6 5 5 4 4 4 3 3 2 1 1 0 -0 -1 -1 -1 0 -0 1 2 3 3 3 4 4 3 2
-11 -12 -12 -11 -10 -10 -9 -4 -0 2 4 5 5 6 6 6 6 6 6 4 4 4 4 3 3 3 2 2 1 1 1 1 0 0 1 0 0 1 1 2 3 4 3
-11 -12 -13 -13 -13 -13 -13 -12 -10 -7 -5 -3 -0 3 4 5 5 5 6 6 6 6 5 4 4 3 2 2 2 2 2 1 1 1 1 0 0 0 0 1 3 3 4
-12 -12 -13 -13 -14 -14 -15 -15 -14 -14 -13 -11 -10 -9 -6 -2 2 4 5 5 5 5 5 5 5 4 5 6 4 3 2 2 1 1 1 1 1 0 0 0 1 3 4
-12 -12 -13 -13 -14 -14 -15 -16 -17 -17 -17 -17 -16 -15 -14 -13 -11 -8 -6 -1 3 4 4 5 5 5 5 5 5 6 6 6 6 5 2 1 1 1 1 0 1 2 3
-12 -12 -13 -14 -14 -14 -15 -16 -17 -18 -18 -18 -19 -19 -19 -19 -19 -18 -16 -14 -11 -8 -3 0 2 3 4 4 4 5 5 5 5 6 6 6 5 4 3 1 1 1 1
-12 -12 -12 -13 -14 -15 -15 -16 -16 -16 -16 -16 -17 -18 -19 -20 -20 -21 -20 -20 -20 -19 -16 -13 -9 -7 -4 -1 2 3 4 4 4 5 5 5 5 6 5 5 3 2 1
-12 -12 -12 -12 -13 -13 -15 -15 -15 -16 -16 -16 -17 -17 -17 -17 -17 -18 -18 -19 -20 -20 -21 -20 -20 -18 -15 -12 -8 -1 1 3 3 4 4 4 5 5 5 5 5 4 3
-12 -12 -12 -12 -13 -14 -14 -14 -15 -16 -16 -16 -16 -16 -17 -17 -17 -17 -17 -17 -17 -17 -18 -19 -20 -20 -20 -19 -18 -15 -10 -1 1 2 2 3 3 4 4 5 5 5 4
-12 -13 -13 -14 -15 -15 -15 -16 -16 -17 -18 -19 -18 -19 -23 -26 -26 -24 -21 -19 -18 -17 -16 -16 -17 -18 -19 -19 -18 -17 -17 -15 -10 -1 1 2 2 2 3 4 4 4 4
-12 -13 -13 -14 -14 -15 -15 -16 -18 -21 -23 -25 -24 -25 -27 -28 -27 -26 -26 -25 -23 -20 -18 -17 -15 -16 -17 -18 -18 -16 -15 -15 -16 -14 -9 -0 1 2 2 2 3 4 3
-12 -12 -13 -13 -14 -16 -17 -20 -24 -26 -27 -26 -26 -25 -24 -23 -23 -23 -24 -26 -25 -22 -20 -18 -17 -16 -16 -15 -16 -15 -13 -12 -12 -13 -14 -14 -10 -2 1 2 2 3 3
-12 -12 -13 -15 -17 -18 -19 -22 -23 -23 -22 -22 -21 -20 -20 -21 -21 -21 -21 -22 -22 -22 -20 -16 -16 -16 -16 -15 -15 -11 -8 -8 -8 -7 -8 -9 -11 -9 -4 -1 1 2 2
-12 -14 -15 -17 -19 -20 -20 -21 -20 -19 -19 -20 -20 -19 -19 -19 -19 -19 -20 -20 -22 -22 -18 -15 -14 -14 -12 -12 -12 -9 -9 -8 -7 -6 -6 -5 -5 -4 -3 -1 -1 0 1
-15 -16 -17 -19 -20 -19 -18 -19 -18 -18 -19 -19 -19 -19 -18 -18 -18 -19 -19 -19 -20 -21 -20 -18 -16 -13 -11 -9 -9 -8 -7 -7 -7 -7 -6 -5 -5 -5 -4 -2 -2 -1 0
-15 -16 -18 -20 -19 -17 -18 -18 -19 -19 -19 -19 -19 -19 -19 -18 -18 -18 -18 -17 -18 -19 -20 -18 -16 -14 -13 -11 -9 -8 -8 -7 -7 -7 -7 -7 -5 -6 -6 -5 -3 -2 -1
-16 -17 -18 -19 -18 -18 -17 -18 -18 -18 -18 -18 -18 -18 -18 -18 -17 -17 -17 -17 -16 -16 -16 -13 -13 -14 -12 -11 -10 -9 -8 -8 -7 -6 -6 -7 -6 -5 -4 -4 -5 -3 -1
-17 -18 -17 -17 -18 -18 -17 -18 -18 -18 -17 -17 -18 -18 -18 -17 -17 -17 -16 -15 -14 -14 -13 -12 -11 -12 -11 -10 -9 -9 -8 -8 -8 -7 -7 -7 -7 -5 -4 -4 -3 -2 -1
-17 -16 -17 -18 -18 -18 -18 -18 -18 -17 -17 -18 -18 -18 -17 -17 -17 -16 -15 -14 -13 -13 -12 -12 -11 -11 -11 -10 -9 -8 -8 -7 -6 -6 -6 -7 -7 -5 -5 -4 -3 -4 -2
-16 -17 -18 -18 -18 -18 -18 -18 -18 -17 -17 -18 -18 -18 -17 -17 -16 -16 -15 -15 -13 -13 -13 -12 -11 -10 -10 -10 -9 -9 -8 -8 -8 -7 -7 -6 -6 -6 -5 -4 -2 -2 -2
Wind_Speed
19 10 12 11 5 9 7 18 21 23 34 30 31 25 24 21 19 17 15 17 20 20 19 18 32 27 28 28 26 22 22 20 20 19 20 21 23 22 20 18 17 18 18
32 26 19 19 20 16 12 14 15 14 21 22 24 20 18 16 14 14 15 18 20 21 19 20 24 24 23 24 26 27 23 24 22 25 23 16 22 26 27 25 21 21 21
39 34 30 21 18 22 22 24 22 15 14 14 7 11 9 9 9 12 15 19 21 20 21 21 23 23 23 23 24 31 25 27 26 27 22 10 13 21 28 31 30 26 26
31 37 37 31 18 17 18 16 14 10 3 6 5 11 7 2 8 12 13 15 18 20 20 22 25 26 27 26 24 30 26 27 31 30 29 22 9 11 12 30 31 34 33
29 34 35 35 35 26 24 17 9 11 12 12 12 8 10 5 4 9 12 10 15 16 15 14 16 19 21 22 24 28 32 32 32 34 33 31 22 16 16 15 25 35 37
31 32 30 33 36 34 32 31 26 15 8 6 6 11 10 8 3 3 4 4 7 10 11 13 14 16 17 18 20 24 27 30 31 32 32 33 33 31 25 24 24 25 27
29 31 33 34 33 32 31 26 25 23 19 18 10 11 16 10 15 13 9 7 6 5 5 8 11 16 18 19 19 21 23 26 30 31 33 34 35 34 34 34 30 29 29
26 28 28 28 28 28 28 25 22 20 19 16 17 16 10 6 5 3 11 15 14 11 10 10 11 11 16 20 22 24 26 27 29 32 34 34 35 35 34 36 35 35 33
22 23 23 24 25 24 25 24 25 22 18 19 16 14 9 6 5 4 4 8 4 16 21 18 16 17 17 17 19 23 26 27 29 31 32 35 36 36 36 38 37 37 33
16 18 20 21 21 22 22 22 21 19 17 14 13 13 11 9 8 5 3 3 4 16 20 14 19 24 22 22 24 25 25 27 30 32 34 36 37 38 38 40 40 40 40
13 15 16 18 19 20 21 21 20 18 16 14 13 11 9 9 7 7 7 7 7 10 12 19 17 8 16 23 29 28 30 31 34 35 36 37 36 38 40 40 42 44 43
10 13 15 17 20 22 22 23 21 20 18 16 15 15 14 13 12 11 12 12 12 12 14 15 18 19 18 13 17 24 29 30 33 34 34 39 35 35 41 43 44 43 44
9 11 13 17 18 19 21 22 21 21 20 20 20 20 20 19 19 18 17 17 18 18 18 20 21 22 21 21 21 22 23 25 28 29 33 37 40 40 36 41 41 44 43
9 11 13 15 16 17 18 19 19 19 19 19 20 21 23 23 22 20 20 19 19 20 22 23 24 25 26 26 25 25 24 24 27 28 30 32 34 37 41 43 44 45 44
9 11 13 14 15 16 17 18 20 22 23 23 22 21 20 19 20 21 21 20 20 20 20 21 23 25 27 27 29 30 30 32 30 29 33 32 34 35 35 38 39 41 44
8 12 15 18 21 22 24 25 25 26 25 24 24 25 26 25 23 22 21 22 23 23 23 22 23 22 22 24 26 29 32 35 36 37 30 33 37 36 36 37 38 39 42
8 11 13 15 16 17 18 20 22 23 24 25 26 27 28 28 28 27 26 25 24 24 25 26 26 26 24 23 23 25 29 33 36 39 42 41 35 38 39 38 37 39 40
9 11 13 14 14 15 16 18 19 21 22 24 26 28 29 30 30 29 29 29 30 29 28 27 27 28 28 27 26 25 27 31 33 35 38 42 46 45 41 39 40 39 40
9 11 13 15 16 16 18 20 21 21 22 24 26 28 29 29 30 31 33 34 33 31 30 30 30 29 28 25 25 27 30 34 34 34 35 35 38 40 42 43 41 43 42
10 13 14 16 17 17 19 21 22 22 24 25 27 28 29 29 30 31 32 32 32 34 33 34 32 31 32 28 27 25 28 33 37 37 36 34 33 32 35 42 44 43 45
12 14 16 18 19 20 20 21 22 23 25 27 28 28 28 29 29 31 31 32 32 32 32 34 34 34 33 29 25 24 28 32 35 37 40 41 36 34 33 36 45 47 41
13 15 18 19 19 20 22 24 25 26 27 28 29 29 29 30 30 30 31 31 30 32 33 34 36 36 37 35 30 30 29 29 32 39 41 42 39 40 38 37 43 44 39
16 17 19 21 21 21 22 25 27 28 29 30 30 31 31 31 30 32 32 31 31 32 32 33 38 40 41 41 38 33 32 31 33 37 38 37 39 40 40 39 41 41 41
19 20 21 23 23 23 25 26 27 28 29 31 32 32 33 32 32 30 30 31 31 34 31 36 40 45 45 44 41 42 43 43 41 41 44 42 38 38 38 40 39 41 40
19 20 23 25 26 28 29 27 27 28 30 32 33 33 33 34 34 32 30 28 29 28 33 35 38 40 45 45 40 40 41 42 43 42 44 45 41 40 37 37 41 42 39
20 24 25 27 29 30 30 29 28 28 31 33 33 33 34 33 34 33 33 29 28 31 28 29 30 35 37 40 42 41 41 42 42 44 45 44 39 39 39 37 35 38 42
Wind_Direction
36 38 44 57 107 196 181 210 207 191 196 191 186 186 184 189 196 204 215 220 203 204 199 213 198 191 199 201 205 206 213 209 203 198 204 210 209 210 206 212 216 217 220
40 50 57 80 81 97 122 172 185 171 177 178 176 165 180 184 199 200 206 201 206 205 206 190 195 206 212 215 211 211 210 211 213 205 205 210 220 218 213 212 213 221 222
33 39 48 68 82 73 83 85 97 83 94 110 118 168 173 178 200 216 214 217 217 220 216 208 209 214 214 219 219 213 218 216 212 217 208 206 219 225 225 223 217 218 224
31 41 53 63 68 71 72 73 82 93 98 88 94 180 121 275 245 235 227 218 228 229 224 221 224 224 228 231 225 213 220 223 220 222 230 231 224 208 219 228 225 224 223
31 39 40 47 67 82 65 69 83 89 116 134 107 127 123 168 210 246 244 233 231 231 227 225 226 230 229 229 226 221 222 227 230 235 242 235 233 230 237 234 230 229 232
41 48 49 51 60 67 72 77 80 92 83 122 107 173 167 195 201 218 234 245 233 231 234 240 244 243 241 236 232 230 230 234 237 239 242 241 235 235 234 239 244 246 246
41 43 45 49 53 60 62 61 64 71 78 81 107 100 146 173 193 201 217 200 233 246 267 275 260 250 247 245 243 241 239 239 241 245 245 245 244 246 250 249 251 252 253
38 40 42 47 51 56 63 67 70 69 66 64 68 84 109 141 110 209 213 228 247 263 266 258 254 257 256 250 250 249 247 246 246 247 249 253 254 252 252 252 252 253 253
44 38 39 41 46 48 48 53 60 60 56 58 59 60 66 73 76 100 184 189 207 244 254 262 272 273 267 262 257 253 250 251 253 254 254 253 254 255 254 254 254 254 251
38 39 39 37 40 43 44 48 47 44 49 51 48 48 42 38 33 10 331 273 247 235 247 272 257 255 267 270 269 266 260 258 258 258 256 254 254 256 256 256 256 253 253
43 28 30 34 36 36 36 39 42 40 39 34 27 21 18 13 8 356 342 325 306 286 273 266 264 268 272 261 261 264 263 269 264 259 255 259 258 257 259 257 256 255 254
48 40 28 21 23 26 25 25 22 19 19 14 10 6 360 353 345 337 326 317 308 298 290 280 277 278 263 256 267 262 263 262 266 271 264 257 258 261 263 259 259 256 255
51 39 31 26 21 17 16 17 15 13 9 6 4 0 354 348 344 336 327 318 308 299 291 286 281 278 278 275 267 263 270 273 271 270 268 269 265 263 271 262 256 258 257
47 33 26 22 21 18 12 8 8 6 6 4 0 358 356 353 348 342 334 324 316 309 302 297 291 285 279 275 274 271 266 278 276 273 269 268 268 267 265 264 264 258 257
34 22 14 10 8 6 4 5 3 358 358 357 351 352 351 345 342 341 337 334 330 324 318 311 304 298 292 286 280 274 270 266 265 273 269 265 263 265 267 265 263 266 263
17 3 358 355 355 354 351 350 350 350 348 347 342 344 343 340 337 334 330 327 327 327 325 321 318 314 309 300 290 282 276 270 268 264 270 278 269 266 262 265 267 265 259
1 354 352 350 347 342 337 336 336 335 335 337 332 333 333 333 333 333 331 327 324 322 321 321 322 319 316 313 305 297 290 282 275 270 266 265 273 274 267 263 262 263 262
348 344 340 337 336 331 328 327 328 326 327 327 325 327 330 330 329 328 326 326 326 325 322 318 318 317 317 319 316 311 302 295 289 282 276 268 264 264 273 273 266 261 260
331 327 326 330 332 327 328 327 327 327 326 324 325 327 328 327 326 326 327 327 324 320 319 320 319 316 313 316 318 314 310 306 301 298 291 282 271 263 263 268 272 266 261
323 323 323 326 324 325 325 324 326 328 326 326 325 325 326 326 325 325 324 322 319 318 319 320 320 321 321 324 320 313 308 304 303 301 297 293 284 277 263 264 266 268 261
321 322 322 324 324 323 324 324 326 327 324 322 322 323 324 324 324 322 321 320 319 317 317 316 317 321 324 320 311 307 304 299 297 297 294 295 288 287 269 261 261 263 265
320 319 318 319 322 324 323 322 326 325 321 321 321 322 323 324 324 324 325 323 322 321 319 318 316 320 322 322 314 309 304 297 293 289 292 285 284 286 282 263 256 259 264
317 317 316 316 319 322 321 321 324 321 320 320 321 322 323 324 325 327 325 326 328 327 322 322 321 318 320 321 319 313 312 305 298 294 293 293 279 281 276 265 256 255 257
316 316 316 317 319 322 321 321 322 320 319 318 320 322 322 324 324 326 327 326 327 326 324 322 316 314 316 318 318 318 315 310 305 301 301 297 285 279 283 270 264 248 252
315 315 317 316 318 319 318 323 322 319 316 317 319 321 320 322 324 326 325 324 320 321 315 310 310 312 312 313 311 308 306 304 300 297 291 289 285 284 279 278 264 254 250
315 315 315 314 316 318 318 322 319 317 315 316 318 318 318 321 323 322 322 327 320 319 313 310 309 310 307 311 313 309 304 302 299 294 287 284 281 276 274 274 262 247 244
Height
1496 1492 1491 1486 1484 1485 1487 1488 1493 1494 1492 1492 1499 1505 1510 1516 1520 1523 1526 1529 1532 1535 1538 1541 1543 1546 1549 1552 1556 1559 1561 1563 1565 1567 1569 1570 1572 1573 1574 1575 1576 1578 1579
1498 1494 1490 1488 1487 1484 1487 1488 1492 1494 1494 1497 1505 1503 1513 1516 1520 1523 1525 1528 1532 1534 1537 1539 1542 1545 1548 1550 1553 1556 1557 1560 1562 1564 1566 1567 1569 1569 1570 1571 1573 1574 1575
1505 1500 1495 1492 1490 1488 1489 1491 1495 1499 1500 1504 1502 1510 1512 1516 1518 1523 1524 1527 1530 1533 1534 1537 1540 1543 1544 1547 1549 1552 1554 1556 1559 1560 1562 1563 1562 1563 1565 1566 1569 1570 1571
1514 1506 1499 1494 1495 1495 1492 1494 1499 1501 1506 1505 1507 1508 1509 1511 1521 1523 1525 1526 1529 1531 1533 1534 1536 1539 1541 1542 1545 1548 1550 1552 1555 1557 1558 1558 1558 1558 1559 1560 1562 1564 1565
1523 1514 1506 1505 1499 1495 1494 1496 1498 1501 1503 1504 1508 1509 1509 1517 1521 1524 1526 1526 1528 1529 1530 1531 1533 1535 1536 1538 1540 1543 1545 1547 1550 1551 1553 1554 1555 1555 1555 1554 1555 1557 1559
1528 1524 1521 1512 1506 1503 1502 1503 1504 1505 1503 1506 1510 1511 1513 1515 1517 1523 1525 1526 1528 1527 1528 1528 1530 1532 1533 1534 1535 1537 1539 1541 1543 1545 1546 1547 1549 1549 1549 1549 1550 1551 1552
1532 1527 1522 1519 1516 1510 1509 1509 1509 1508 1510 1512 1512 1509 1513 1517 1519 1519 1522 1526 1526 1525 1525 1526 1527 1528 1529 1530 1532 1532 1534 1535 1537 1539 1540 1542 1542 1544 1545 1545 1544 1543 1546
1537 1533 1530 1527 1525 1525 1524 1523 1522 1519 1515 1517 1514 1513 1514 1517 1518 1519 1519 1521 1521 1521 1520 1522 1523 1524 1526 1526 1527 1527 1528 1529 1530 1531 1533 1534 1535 1537 1538 1539 1540 1538 1538
1542 1539 1537 1533 1530 1527 1525 1522 1516 1516 1519 1518 1519 1518 1519 1518 1517 1517 1515 1515 1516 1517 1518 1518 1519 1520 1521 1521 1521 1521 1522 1523 1524 1524 1525 1526 1527 1528 1529 1530 1532 1532 1530
1542 1542 1540 1537 1534 1530 1527 1519 1517 1520 1521 1523 1523 1520 1522 1521 1517 1516 1514 1512 1511 1512 1513 1513 1513 1516 1515 1515 1515 1515 1516 1515 1516 1516 1516 1517 1519 1519 1520 1520 1522 1522 1522
1546 1543 1541 1539 1537 1535 1532 1529 1527 1526 1526 1525 1525 1524 1522 1519 1516 1514 1514 1512 1511 1510 1508 1508 1508 1508 1508 1507 1508 1507 1507 1507 1506 1505 1506 1508 1510 1509 1510 1511 1512 1512 1513
1547 1545 1542 1538 1535 1533 1530 1527 1525 1526 1526 1524 1522 1519 1516 1515 1513 1511 1511 1509 1506 1506 1505 1505 1503 1502 1500 1500 1500 1499 1497 1497 1497 1496 1495 1496 1499 1498 1500 1500 1501 1500 1501
1548 1546 1544 1540 1536 1533 1531 1530 1529 1529 1527 1522 1518 1516 1514 1511 1507 1506 1505 1504 1503 1501 1501 1500 1498 1496 1493 1492 1493 1491 1490 1489 1488 1486 1486 1487 1488 1487 1487 1486 1488 1490 1490
1549 1546 1544 1542 1540 1538 1534 1533 1532 1529 1525 1522 1517 1515 1512 1510 1508 1507 1505 1504 1501 1498 1495 1495 1492 1488 1486 1485 1484 1483 1481 1479 1477 1477 1477 1477 1477 1477 1478 1477 1477 1477 1478
1545 1544 1542 1540 1538 1536 1535 1532 1528 1524 1519 1515 1516 1516 1514 1513 1510 1505 1503 1501 1498 1495 1490 1487 1485 1483 1480 1477 1474 1474 1471 1469 1466 1466 1466 1466 1466 1467 1468 1468 1467 1468 1467
1543 1541 1539 1536 1533 1530 1527 1525 1523 1520 1518 1518 1514 1510 1508 1508 1506 1502 1499 1498 1494 1490 1487 1484 1481 1478 1473 1470 1467 1464 1459 1458 1456 1455 1454 1454 1455 1455 1456 1458 1457 1457 1456
1541 1540 1538 1536 1535 1532 1530 1527 1524 1521 1519 1516 1512 1509 1506 1502 1499 1497 1496 1493 1489 1486 1482 1478 1474 1471 1467 1464 1459 1455 1450 1447 1445 1444 1444 1444 1443 1442 1443 1445 1446 1447 1446
1540 1539 1538 1536 1534 1531 1529 1526 1523 1520 1517 1514 1510 1507 1503 1502 1498 1494 1491 1484 1480 1477 1474 1472 1468 1464 1460 1455 1452 1447 1442 1438 1434 1432 1431 1431 1431 1432 1432 1434 1433 1433 1435
1538 1537 1536 1534 1532 1529 1527 1524 1521 1519 1516 1513 1509 1506 1503 1499 1493 1488 1483 1478 1475 1473 1469 1465 1462 1457 1452 1449 1444 1439 1434 1429 1424 1421 1419 1418 1417 1419 1424 1422 1421 1421 1419
1536 1534 1532 1531 1529 1526 1524 1521 1518 1516 1513 1510 1506 1503 1498 1493 1488 1483 1478 1475 1471 1465 1460 1455 1453 1448 1443 1441 1436 1433 1429 1421 1416 1413 1410 1408 1408 1408 1410 1411 1410 1407 1408
1533 1531 1529 1527 1525 1522 1519 1516 1514 1511 1508 1505 1501 1497 1494 1489 1485 1480 1475 1470 1465 1459 1454 1449 1444 1439 1436 1431 1430 1428 1424 1417 1411 1405 1400 1397 1399 1397 1398 1398 1397 1395 1401
1528 1527 1525 1523 1521 1518 1515 1511 1509 1506 1502 1498 1494 1491 1487 1483 1479 1474 1469 1465 1459 1452 1447 1441 1435 1431 1427 1424 1422 1419 1416 1410 1404 1397 1392 1389 1388 1387 1386 1385 1384 1385 1388
1525 1523 1521 1518 1516 1514 1511 1507 1504 1500 1495 1492 1488 1484 1480 1476 1472 1467 1462 1457 1452 1447 1440 1435 1428 1419 1417 1414 1411 1407 1403 1398 1394 1389 1384 1380 1376 1375 1372 1371 1371 1374 1375
1522 1519 1516 1513 1510 1509 1506 1503 1498 1494 1489 1484 1480 1477 1472 1468 1465 1461 1456 1451 1446 1440 1435 1430 1423 1415 1409 1405 1401 1396 1391 1388 1383 1377 1370 1366 1366 1363 1360 1358 1358 1360 1360
1518 1515 1512 1508 1505 1502 1499 1496 1492 1488 1483 1479 1475 1470 1466 1461 1457 1453 1450 1445 1442 1438 1431 1426 1420 1411 1401 1399 1396 1391 1383 1378 1373 1369 1361 1355 1352 1350 1347 1346 1346 1346 1348
1512 1510 1506 1502 1499 1496 1492 1489 1486 1482 1477 1472 1468 1464 1459 1455 1451 1446 1440 1439 1435 1430 1425 1420 1415 1408 1401 1392 1385 1380 1374 1367 1362 1355 1349 1343 1342 1339 1338 1336 1333 1333 1335